When you browse on this site, cookies collect data to enhance your experience and personalize the content and advertising you see.
Visit our Privacy Policy to learn more. By continuing to use the site, you agree to this use of cookies and data.
  • în România
  • Lista ţărilor
  • Pe 7 zile
  • Temperatura apei
  • Hartă satelitară
  • Meteo pe hartă
  • Widget-uri
  • user-avatar
    Intrare

    Meteo pe oră la Aylesbury

    Astăzi, 19 Iunie, Miercuri

    Timp Temperatura Precipitaţii Vânt Presiune Umiditate
    00:00 +13°C° 0 mm 2 m/s 749 mmHg 98%
    01:00 +13°C° 0 mm 2 m/s 748 mmHg 98%
    02:00 +13°C° 0 mm 2 m/s 748 mmHg 97%
    03:00 +13°C° 0 mm 2 m/s 747 mmHg 97%
    04:00 +14°C° 0 mm 2 m/s 747 mmHg 97%
    05:00 +14°C° 0 mm 2 m/s 747 mmHg 97%
    06:00 +14°C° 0 mm 2 m/s 747 mmHg 96%
    07:00 +15°C° 0 mm 2 m/s 747 mmHg 95%
    08:00 +16°C° 0 mm 2 m/s 747 mmHg 94%
    09:00 +16°C° 0 mm 2 m/s 747 mmHg 93%
    10:00 +17°C° 0.3 mm 2 m/s 747 mmHg 91%
    11:00 +18°C° 0.3 mm 2 m/s 748 mmHg 88%
    12:00 +18°C° 0 mm 2 m/s 748 mmHg 88%
    13:00 +19°C° 0.8 mm 2 m/s 748 mmHg 87%
    14:00 +19°C° 0.8 mm 2 m/s 748 mmHg 85%
    15:00 +19°C° 0.8 mm 3 m/s 747 mmHg 84%
    16:00 +19°C° 0.5 mm 3 m/s 747 mmHg 86%
    17:00 +18°C° 0.5 mm 2 m/s 747 mmHg 87%
    18:00 +17°C° 0.5 mm 2 m/s 747 mmHg 89%
    19:00 +17°C° 0.1 mm 2 m/s 748 mmHg 90%
    20:00 +16°C° 0.1 mm 2 m/s 748 mmHg 91%
    21:00 +15°C° 0.1 mm 2 m/s 748 mmHg 92%
    22:00 +13°C° 0 mm 3 m/s 749 mmHg 92%
    23:00 +12°C° 0 mm 3 m/s 749 mmHg 93%

    Mâine, 20 Iunie, Joi

    Timp Temperatura Precipitaţii Vânt Presiune Umiditate
    00:00 +11°C° 0 mm 4 m/s 749 mmHg 94%
    01:00 +10°C° 0 mm 4 m/s 749 mmHg 93%
    02:00 +9°C° 0 mm 3 m/s 749 mmHg 93%
    03:00 +8°C° 0 mm 3 m/s 749 mmHg 93%
    04:00 +9°C° 0 mm 3 m/s 749 mmHg 93%
    05:00 +10°C° 0 mm 4 m/s 750 mmHg 94%
    06:00 +10°C° 0 mm 4 m/s 750 mmHg 94%
    07:00 +12°C° 0.1 mm 4 m/s 750 mmHg 89%
    08:00 +13°C° 0.1 mm 4 m/s 751 mmHg 85%
    09:00 +15°C° 0.1 mm 4 m/s 751 mmHg 81%
    10:00 +15°C° 0.3 mm 4 m/s 751 mmHg 79%
    11:00 +15°C° 0.3 mm 4 m/s 751 mmHg 77%
    12:00 +17°C° 0.3 mm 4 m/s 752 mmHg 75%
    13:00 +16°C° 0.4 mm 5 m/s 752 mmHg 76%
    14:00 +16°C° 0.4 mm 5 m/s 752 mmHg 78%
    15:00 +15°C° 0.4 mm 5 m/s 752 mmHg 79%
    16:00 +15°C° 0.2 mm 4 m/s 752 mmHg 81%
    17:00 +15°C° 0.2 mm 4 m/s 752 mmHg 83%
    18:00 +14°C° 0.2 mm 3 m/s 752 mmHg 85%
    19:00 +13°C° 0 mm 3 m/s 753 mmHg 87%
    20:00 +11°C° 0 mm 3 m/s 753 mmHg 89%
    21:00 +10°C° 0 mm 3 m/s 753 mmHg 91%
    22:00 +9°C° 0 mm 3 m/s 754 mmHg 92%
    23:00 +8°C° 0 mm 3 m/s 754 mmHg 93%

    Poimâine, 21 Iunie, Vineri

    Timp Temperatura Precipitaţii Vânt Presiune Umiditate
    00:00 +7°C° 0 mm 3 m/s 754 mmHg 94%
    01:00 +7°C° 0 mm 3 m/s 754 mmHg 94%
    02:00 +6°C° 0 mm 2 m/s 755 mmHg 94%
    03:00 +6°C° 0 mm 2 m/s 755 mmHg 94%
    04:00 +7°C° 0 mm 3 m/s 755 mmHg 93%
    05:00 +8°C° 0 mm 3 m/s 755 mmHg 92%
    06:00 +9°C° 0 mm 3 m/s 756 mmHg 91%
    07:00 +11°C° 0 mm 3 m/s 756 mmHg 86%
    08:00 +12°C° 0 mm 3 m/s 756 mmHg 80%
    09:00 +14°C° 0 mm 3 m/s 757 mmHg 74%
    10:00 +16°C° 0 mm 3 m/s 757 mmHg 72%
    11:00 +16°C° 0 mm 3 m/s 757 mmHg 70%
    12:00 +16°C° 0 mm 3 m/s 757 mmHg 68%
    13:00 +17°C° 0 mm 3 m/s 757 mmHg 68%
    14:00 +17°C° 0 mm 3 m/s 757 mmHg 68%
    15:00 +17°C° 0 mm 2 m/s 758 mmHg 68%
    16:00 +17°C° 0 mm 2 m/s 758 mmHg 70%
    17:00 +17°C° 0 mm 2 m/s 758 mmHg 72%
    18:00 +16°C° 0 mm 2 m/s 758 mmHg 74%
    19:00 +15°C° 0 mm 1 m/s 758 mmHg 78%
    20:00 +13°C° 0 mm 1 m/s 758 mmHg 81%
    21:00 +11°C° 0 mm 1 m/s 759 mmHg 84%
    22:00 +10°C° 0 mm 0 m/s 759 mmHg 85%
    23:00 +9°C° 0 mm 0 m/s 759 mmHg 85%

    22 Iunie, Sâmbătă

    Timp Temperatura Precipitaţii Vânt Presiune Umiditate
    00:00 +9°C° 0 mm 0 m/s 759 mmHg 86%
    01:00 +9°C° 0 mm 0 m/s 759 mmHg 87%
    02:00 +8°C° 0 mm 0 m/s 759 mmHg 87%
    03:00 +8°C° 0 mm 0 m/s 759 mmHg 88%
    04:00 +9°C° 0 mm 0 m/s 759 mmHg 87%
    05:00 +11°C° 0 mm 1 m/s 759 mmHg 85%
    06:00 +12°C° 0 mm 1 m/s 759 mmHg 84%
    07:00 +14°C° 0 mm 1 m/s 759 mmHg 80%
    08:00 +15°C° 0 mm 1 m/s 759 mmHg 75%
    09:00 +18°C° 0 mm 1 m/s 759 mmHg 71%
    10:00 +17°C° 0 mm 2 m/s 759 mmHg 68%
    11:00 +18°C° 0 mm 2 m/s 759 mmHg 66%
    12:00 +19°C° 0 mm 2 m/s 759 mmHg 64%
    13:00 +19°C° 0.1 mm 2 m/s 758 mmHg 65%
    14:00 +19°C° 0.1 mm 2 m/s 758 mmHg 66%
    15:00 +19°C° 0.1 mm 2 m/s 758 mmHg 67%
    16:00 +19°C° 0 mm 3 m/s 758 mmHg 70%
    17:00 +18°C° 0 mm 3 m/s 758 mmHg 74%
    18:00 +18°C° 0 mm 4 m/s 758 mmHg 77%
    19:00 +15°C° 0 mm 4 m/s 758 mmHg 78%
    20:00 +13°C° 0 mm 3 m/s 758 mmHg 80%
    21:00 +11°C° 0 mm 3 m/s 758 mmHg 81%
    22:00 +10°C° 0 mm 3 m/s 758 mmHg 85%
    23:00 +9°C° 0 mm 3 m/s 758 mmHg 88%

    23 Iunie, Duminică

    Timp Temperatura Precipitaţii Vânt Presiune Umiditate
    00:00 +9°C° 0 mm 3 m/s 758 mmHg 92%
    01:00 +9°C° 0 mm 3 m/s 757 mmHg 92%
    02:00 +9°C° 0 mm 3 m/s 757 mmHg 92%
    03:00 +9°C° 0 mm 3 m/s 757 mmHg 93%
    04:00 +10°C° 0 mm 3 m/s 757 mmHg 93%
    05:00 +11°C° 0 mm 4 m/s 757 mmHg 92%
    06:00 +12°C° 0 mm 4 m/s 757 mmHg 92%
    07:00 +13°C° 0 mm 4 m/s 757 mmHg 91%
    08:00 +14°C° 0 mm 4 m/s 757 mmHg 89%
    09:00 +15°C° 0 mm 5 m/s 757 mmHg 88%
    10:00 +16°C° 0.1 mm 5 m/s 757 mmHg 87%
    11:00 +16°C° 0.1 mm 5 m/s 757 mmHg 87%
    12:00 +17°C° 0.1 mm 6 m/s 756 mmHg 86%
    13:00 +19°C° 0 mm 6 m/s 756 mmHg 84%
    14:00 +20°C° 0 mm 6 m/s 756 mmHg 82%
    15:00 +22°C° 0 mm 6 m/s 755 mmHg 80%
    16:00 +21°C° 0.2 mm 6 m/s 755 mmHg 82%
    17:00 +21°C° 0.2 mm 5 m/s 755 mmHg 84%
    18:00 +21°C° 0.2 mm 5 m/s 755 mmHg 86%
    19:00 +20°C° 0.1 mm 5 m/s 755 mmHg 88%
    20:00 +19°C° 0.1 mm 4 m/s 755 mmHg 90%
    21:00 +18°C° 0.1 mm 4 m/s 755 mmHg 91%
    22:00 +18°C° 0 mm 4 m/s 755 mmHg 92%
    23:00 +17°C° 0 mm 4 m/s 755 mmHg 92%

    24 Iunie, Luni

    Timp Temperatura Precipitaţii Vânt Presiune Umiditate
    00:00 +17°C° 0 mm 4 m/s 754 mmHg 93%
    01:00 +17°C° 0 mm 4 m/s 754 mmHg 94%
    02:00 +17°C° 0 mm 4 m/s 754 mmHg 94%
    03:00 +17°C° 0 mm 3 m/s 754 mmHg 95%
    04:00 +18°C° 0.3 mm 3 m/s 754 mmHg 95%
    05:00 +18°C° 0.3 mm 4 m/s 754 mmHg 95%
    06:00 +19°C° 0.3 mm 4 m/s 754 mmHg 95%
    07:00 +20°C° 0.3 mm 4 m/s 754 mmHg 92%
    08:00 +21°C° 0.3 mm 4 m/s 754 mmHg 90%
    09:00 +23°C° 0.3 mm 5 m/s 755 mmHg 88%
    10:00 +23°C° 0.7 mm 4 m/s 755 mmHg 86%
    11:00 +25°C° 0.7 mm 4 m/s 755 mmHg 84%
    12:00 +25°C° 0.7 mm 4 m/s 755 mmHg 82%
    13:00 +25°C° 0.3 mm 4 m/s 755 mmHg 83%
    14:00 +23°C° 0.3 mm 4 m/s 755 mmHg 84%
    15:00 +24°C° 0.3 mm 3 m/s 755 mmHg 85%
    16:00 +23°C° 0 mm 2 m/s 755 mmHg 87%
    17:00 +23°C° 0 mm 2 m/s 755 mmHg 88%
    18:00 +22°C° 0 mm 1 m/s 755 mmHg 89%
    19:00 +22°C° 0 mm 1 m/s 755 mmHg 90%
    20:00 +21°C° 0 mm 1 m/s 755 mmHg 90%
    21:00 +21°C° 0 mm 1 m/s 756 mmHg 90%
    22:00 +20°C° 0.1 mm 2 m/s 755 mmHg 91%
    23:00 +19°C° 0.1 mm 3 m/s 755 mmHg 92%
    Arată mai mult